Tracking 34403 objects as of 12-Jun-2026
HD Live streaming from Space Station
objects crossing your sky now

COSMOS 1317 DEB

Track COSMOS 1317 DEB now!


NORAD ID: 14736
Int'l Code: 1981-108G
Perigee: 7,839.0 km
Apogee: 32,606.3 km
Inclination: 71.5 °
Period: 719.3 minutes
Semi major axis: 26593 km
RCS: 3.4522 m2 (large)
Launch date: October 31, 1981
Source: Commonwealth of Independent States (former USSR) (CIS)
Launch site: PLESETSK MISSILE AND SPACE COMPLEX (PKMTR)

Note: This is SATELLITE DEBRIS
Your satellite tracking list
Your tracking list is empty




NASA's NSSDC Master Catalog

Two Line Element Set (TLE):
1 14736U 81108G   26163.13846574  .00000074  00000-0  00000-0 0  9996
2 14736  71.5390 116.4184 4656623 322.2729 159.3790  2.00187439233211
Source of the keplerian elements: AFSPC